| time (UTC) | temp F | wind direction | speed MPH | gust MPH | rain 1hr in | rain 24hr in | rain mn in | humidity % | barometer mb |
| 20260506175011 | 68 | 36 | 2.0 | 5.0 | 0.00 | 0.00 | 0.00 | 64 | 1018.3 |
| 20260506174010 | 67 | 116 | 2.0 | 5.0 | 0.00 | 0.00 | 0.00 | 65 | 1018.2 |
| 20260506173509 | 67 | 40 | 2.0 | 5.0 | 0.00 | 0.00 | 0.00 | 64 | 1018.2 |
| 20260506173010 | 67 | 348 | 1.0 | 3.0 | 0.00 | 0.00 | 0.00 | 64 | 1018.2 |
| 20260506172009 | 67 | 347 | 2.0 | 5.0 | 0.00 | 0.00 | 0.00 | 66 | 1018.3 |
| 20260506171506 | 66 | 304 | 2.0 | 4.0 | 0.00 | 0.00 | 0.00 | 67 | 1018.4 |
| 20260506171011 | 65 | 20 | 1.0 | 4.0 | 0.00 | 0.00 | 0.00 | 68 | 1018.4 |
| 20260506170510 | 65 | 349 | 1.0 | 4.0 | 0.00 | 0.00 | 0.00 | 68 | 1018.3 |
| 20260506170010 | 65 | 343 | 1.0 | 2.0 | 0.00 | 0.00 | 0.00 | 68 | 1018.4 |
| 20260506165510 | 64 | 238 | 1.0 | 4.0 | 0.00 | 0.00 | 0.00 | 70 | 1018.4 |
| 20260506165008 | 64 | 50 | 2.0 | 4.0 | 0.00 | 0.00 | 0.00 | 69 | 1018.4 |
| 20260506164508 | 64 | 354 | 2.0 | 4.0 | 0.00 | 0.00 | 0.00 | 69 | 1018.4 |
| 20260506163505 | 63 | 6 | 1.0 | 3.0 | 0.00 | 0.00 | 0.00 | 70 | 1018.4 |
| 20260506163010 | 63 | 65 | 1.0 | 2.0 | 0.00 | 0.00 | 0.00 | 71 | 1018.4 |
| 20260506162509 | 63 | 33 | 1.0 | 3.0 | 0.00 | 0.00 | 0.00 | 71 | 1018.4 |
| 20260506162009 | 63 | 321 | 1.0 | 3.0 | 0.00 | 0.00 | 0.00 | 71 | 1018.4 |
| 20260506161511 | 62 | 49 | 1.0 | 3.0 | 0.00 | 0.00 | 0.00 | 72 | 1018.4 |
| 20260506161010 | 62 | 322 | 0.0 | 2.0 | 0.00 | 0.00 | 0.00 | 72 | 1018.4 |
| 20260506160509 | 62 | 326 | 0.0 | 1.0 | 0.00 | 0.00 | 0.00 | 72 | 1018.4 |
| 20260506160017 | 62 | 302 | 0.0 | 2.0 | 0.00 | 0.00 | 0.00 | 74 | 1018.5 |
| 20260506155509 | 61 | 330 | 1.0 | 2.0 | 0.00 | 0.00 | 0.00 | 73 | 1018.5 |
| 20260506155006 | 61 | 302 | 1.0 | 2.0 | 0.00 | 0.00 | 0.00 | 74 | 1018.5 |
| 20260506153509 | 60 | 252 | 1.0 | 3.0 | 0.00 | 0.00 | 0.00 | 75 | 1018.5 |
| 20260506153014 | 60 | 256 | 0.0 | 2.0 | 0.00 | 0.00 | 0.00 | 76 | 1018.5 |
| 20260506152510 | 60 | 282 | 0.0 | 1.0 | 0.00 | 0.00 | 0.00 | 76 | 1018.5 |
| 20260506152008 | 60 | 282 | 0.0 | 1.0 | 0.00 | 0.00 | 0.00 | 75 | 1018.5 |
| 20260506151509 | 59 | 282 | 0.0 | 1.0 | 0.00 | 0.00 | 0.00 | 77 | 1018.5 |
| 20260506151012 | 59 | 282 | 0.0 | 1.0 | 0.00 | 0.00 | 0.00 | 77 | 1018.5 |
| 20260506150505 | 59 | 282 | 0.0 | 1.0 | 0.00 | 0.00 | 0.00 | 77 | 1018.5 |
| 20260506150022 | 59 | 282 | 0.0 | 0.0 | 0.00 | 0.00 | 0.00 | 78 | 1018.5 |
| 20260506145509 | 59 | 282 | 0.0 | 0.0 | 0.00 | 0.00 | 0.00 | 78 | 1018.5 |
| 20260506144507 | 58 | 282 | 0.0 | 0.0 | 0.00 | 0.00 | 0.00 | 78 | 1018.4 |
| 20260506143509 | 58 | 282 | 0.0 | 0.0 | 0.00 | 0.00 | 0.00 | 78 | 1018.4 |
| 20260506143010 | 58 | 282 | 0.0 | 0.0 | 0.00 | 0.00 | 0.00 | 79 | 1018.3 |
| 20260506142509 | 58 | 282 | 0.0 | 0.0 | 0.00 | 0.00 | 0.00 | 79 | 1018.3 |
| 20260506142010 | 57 | 282 | 0.0 | 0.0 | 0.00 | 0.00 | 0.00 | 80 | 1018.2 |
| 20260506141511 | 57 | 282 | 0.0 | 0.0 | 0.00 | 0.00 | 0.00 | 80 | 1018.2 |
| 20260506141009 | 57 | 282 | 0.0 | 0.0 | 0.00 | 0.00 | 0.00 | 80 | 1018.1 |
| 20260506140510 | 57 | 282 | 0.0 | 0.0 | 0.00 | 0.00 | 0.00 | 80 | 1018.0 |
| 20260506135508 | 57 | 282 | 0.0 | 0.0 | 0.00 | 0.00 | 0.00 | 81 | 1018.0 |
| 20260506135009 | 57 | 282 | 0.0 | 0.0 | 0.00 | 0.00 | 0.00 | 81 | 1017.9 |
| 20260506134010 | 56 | 282 | 0.0 | 0.0 | 0.00 | 0.00 | 0.00 | 81 | 1017.9 |
| 20260506133510 | 56 | 282 | 0.0 | 1.0 | 0.00 | 0.00 | 0.00 | 81 | 1017.8 |
| 20260506132009 | 56 | 282 | 0.0 | 0.0 | 0.00 | 0.00 | 0.00 | 81 | 1017.6 |
| 20260506131509 | 56 | 282 | 0.0 | 0.0 | 0.00 | 0.00 | 0.00 | 81 | 1017.6 |
| 20260506131009 | 56 | 282 | 0.0 | 0.0 | 0.00 | 0.00 | 0.00 | 81 | 1017.6 |
| 20260506130505 | 56 | 282 | 0.0 | 0.0 | 0.00 | 0.00 | 0.00 | 81 | 1017.6 |
| 20260506130008 | 56 | 282 | 0.0 | 0.0 | 0.00 | 0.00 | 0.00 | 81 | 1017.5 |
| 20260506125507 | 56 | 282 | 0.0 | 0.0 | 0.00 | 0.00 | 0.00 | 81 | 1017.5 |
| 20260506125009 | 56 | 282 | 0.0 | 0.0 | 0.00 | 0.00 | 0.00 | 81 | 1017.5 |
| 20260506124510 | 56 | 282 | 0.0 | 0.0 | 0.00 | 0.00 | 0.00 | 81 | 1017.5 |
| 20260506124007 | 56 | 282 | 0.0 | 0.0 | 0.00 | 0.00 | 0.00 | 80 | 1017.4 |
| 20260506122007 | 56 | 282 | 0.0 | 1.0 | 0.00 | 0.00 | 0.00 | 80 | 1017.4 |
| 20260506121505 | 56 | 282 | 0.0 | 1.0 | 0.00 | 0.00 | 0.00 | 80 | 1017.4 |
| 20260506121009 | 56 | 282 | 0.0 | 1.0 | 0.00 | 0.00 | 0.00 | 80 | 1017.4 |
| 20260506120506 | 56 | 282 | 0.0 | 1.0 | 0.00 | 0.00 | 0.00 | 80 | 1017.4 |
| 20260506120022 | 56 | 282 | 0.0 | 0.0 | 0.00 | 0.00 | 0.00 | 80 | 1017.4 |
| 20260506115510 | 56 | 282 | 0.0 | 1.0 | 0.00 | 0.00 | 0.00 | 80 | 1017.3 |
| 20260506115006 | 56 | 282 | 0.0 | 1.0 | 0.00 | 0.00 | 0.00 | 80 | 1017.3 |
| 20260506114006 | 56 | 282 | 0.0 | 1.0 | 0.00 | 0.00 | 0.00 | 80 | 1017.2 |
| 20260506113010 | 56 | 281 | 0.0 | 2.0 | 0.00 | 0.00 | 0.00 | 80 | 1017.1 |
| 20260506112508 | 56 | 281 | 0.0 | 1.0 | 0.00 | 0.00 | 0.00 | 80 | 1017.1 |
| 20260506112008 | 56 | 281 | 0.0 | 1.0 | 0.00 | 0.00 | 0.00 | 80 | 1017.0 |
| 20260506111509 | 56 | 281 | 0.0 | 2.0 | 0.00 | 0.00 | 0.00 | 80 | 1017.0 |
| 20260506111010 | 56 | 281 | 1.0 | 3.0 | 0.00 | 0.00 | 0.00 | 80 | 1016.9 |
| 20260506110508 | 56 | 248 | 1.0 | 3.0 | 0.00 | 0.00 | 0.00 | 80 | 1016.8 |
| 20260506105505 | 56 | 252 | 2.0 | 5.0 | 0.00 | 0.03 | 0.00 | 79 | 1016.7 |
| 20260506105007 | 56 | 236 | 2.0 | 6.0 | 0.00 | 0.03 | 0.00 | 79 | 1016.7 |
| 20260506104510 | 56 | 262 | 2.0 | 6.0 | 0.00 | 0.03 | 0.00 | 79 | 1016.8 |
| 20260506104005 | 57 | 276 | 2.0 | 6.0 | 0.00 | 0.03 | 0.00 | 79 | 1016.7 |
| 20260506103506 | 57 | 281 | 2.0 | 5.0 | 0.00 | 0.03 | 0.00 | 79 | 1016.7 |
| 20260506103009 | 57 | 280 | 3.0 | 6.0 | 0.00 | 0.03 | 0.00 | 79 | 1016.7 |
| 20260506102007 | 57 | 321 | 2.0 | 6.0 | 0.00 | 0.03 | 0.00 | 79 | 1016.6 |
| 20260506101506 | 57 | 249 | 2.0 | 5.0 | 0.00 | 0.03 | 0.00 | 79 | 1016.6 |
| 20260506101010 | 57 | 287 | 2.0 | 4.0 | 0.00 | 0.03 | 0.00 | 79 | 1016.6 |
| 20260506100010 | 57 | 262 | 2.0 | 5.0 | 0.00 | 0.03 | 0.00 | 79 | 1016.6 |
| 20260506095505 | 57 | 285 | 2.0 | 5.0 | 0.00 | 0.06 | 0.00 | 79 | 1016.6 |
| 20260506095012 | 57 | 343 | 2.0 | 4.0 | 0.00 | 0.06 | 0.00 | 79 | 1016.5 |
| 20260506094010 | 56 | 283 | 2.0 | 6.0 | 0.00 | 0.06 | 0.00 | 80 | 1016.5 |
| 20260506093507 | 56 | 271 | 1.0 | 5.0 | 0.00 | 0.06 | 0.00 | 80 | 1016.5 |
| 20260506093011 | 56 | 259 | 1.0 | 4.0 | 0.00 | 0.06 | 0.00 | 80 | 1016.5 |
| 20260506092505 | 56 | 297 | 1.0 | 4.0 | 0.00 | 0.06 | 0.00 | 80 | 1016.5 |
| 20260506092012 | 56 | 269 | 1.0 | 4.0 | 0.00 | 0.06 | 0.00 | 80 | 1016.4 |
| 20260506091509 | 56 | 296 | 0.0 | 2.0 | 0.00 | 0.06 | 0.00 | 81 | 1016.5 |
| 20260506091008 | 56 | 296 | 0.0 | 2.0 | 0.00 | 0.06 | 0.00 | 81 | 1016.5 |
| 20260506090021 | 56 | 295 | 1.0 | 3.0 | 0.00 | 0.06 | 0.00 | 80 | 1016.5 |
| 20260506085509 | 56 | 288 | 0.0 | 3.0 | 0.00 | 0.09 | 0.00 | 81 | 1016.6 |
| 20260506085010 | 56 | 349 | 0.0 | 2.0 | 0.00 | 0.09 | 0.00 | 81 | 1016.7 |
| 20260506084505 | 56 | 349 | 0.0 | 1.0 | 0.00 | 0.09 | 0.00 | 81 | 1016.6 |
| 20260506084006 | 56 | 349 | 0.0 | 1.0 | 0.00 | 0.09 | 0.00 | 81 | 1016.6 |
| 20260506083510 | 56 | 349 | 0.0 | 2.0 | 0.00 | 0.09 | 0.00 | 80 | 1016.6 |
| 20260506083007 | 56 | 349 | 0.0 | 2.0 | 0.00 | 0.09 | 0.00 | 81 | 1016.6 |
| 20260506082507 | 56 | 349 | 0.0 | 1.0 | 0.00 | 0.09 | 0.00 | 81 | 1016.7 |
| 20260506081505 | 56 | 349 | 0.0 | 2.0 | 0.00 | 0.09 | 0.00 | 81 | 1016.6 |
| 20260506080506 | 56 | 350 | 1.0 | 2.0 | 0.00 | 0.09 | 0.00 | 80 | 1016.5 |
| 20260506073506 | 56 | 255 | 2.0 | 6.0 | 0.00 | 0.10 | 0.00 | 80 | 1016.2 |
| 20260506073009 | 56 | 286 | 3.0 | 7.0 | 0.00 | 0.10 | 0.00 | 80 | 1016.2 |
| 20260506072009 | 55 | 262 | 3.0 | 9.0 | 0.00 | 0.10 | 0.00 | 82 | 1016.0 |
| 20260506071506 | 55 | 263 | 1.0 | 9.0 | 0.00 | 0.10 | 0.00 | 83 | 1016.1 |
| 20260506071008 | 55 | 265 | 0.0 | 2.0 | 0.00 | 0.10 | 0.00 | 83 | 1016.1 |
| 20260506070509 | 55 | 265 | 0.0 | 1.0 | 0.00 | 0.10 | 0.00 | 83 | 1016.1 |
| 20260506062506 | 56 | 264 | 1.0 | 3.0 | 0.00 | 0.13 | 0.10 | 82 | 1015.7 |
| 20260506061009 | 56 | 278 | 0.0 | 2.0 | 0.00 | 0.13 | 0.10 | 81 | 1015.7 |
| 20260506051008 | 58 | 253 | 1.0 | 2.0 | 0.00 | 0.13 | 0.10 | 77 | 1015.2 |
| 20260506050508 | 58 | 257 | 1.0 | 4.0 | 0.00 | 0.13 | 0.10 | 77 | 1015.0 |
| 20260506045009 | 59 | 267 | 1.0 | 2.0 | 0.00 | 0.13 | 0.10 | 76 | 1015.0 |
| 20260506044506 | 59 | 271 | 2.0 | 4.0 | 0.00 | 0.13 | 0.10 | 75 | 1014.9 |
| 20260506044013 | 60 | 278 | 3.0 | 6.0 | 0.00 | 0.13 | 0.10 | 75 | 1014.8 |
| 20260506043507 | 60 | 255 | 3.0 | 7.0 | 0.00 | 0.13 | 0.10 | 75 | 1014.8 |
| 20260506043011 | 60 | 287 | 3.0 | 7.0 | 0.00 | 0.13 | 0.10 | 75 | 1014.7 |
| 20260506042007 | 60 | 269 | 2.0 | 6.0 | 0.00 | 0.13 | 0.10 | 74 | 1014.6 |
| 20260506041508 | 60 | 293 | 2.0 | 6.0 | 0.00 | 0.13 | 0.10 | 74 | 1014.4 |
| 20260506041008 | 61 | 314 | 4.0 | 9.0 | 0.00 | 0.13 | 0.10 | 73 | 1014.4 |
| 20260506040506 | 61 | 285 | 5.0 | 9.0 | 0.00 | 0.13 | 0.10 | 73 | 1014.3 |
| 20260506035507 | 61 | 253 | 5.0 | 10.0 | 0.00 | 0.13 | 0.10 | 73 | 1014.3 |
| 20260506035010 | 61 | 281 | 5.0 | 10.0 | 0.00 | 0.13 | 0.10 | 73 | 1014.3 |
| 20260506034507 | 61 | 284 | 4.0 | 9.0 | 0.00 | 0.13 | 0.10 | 72 | 1014.3 |
| 20260506034011 | 61 | 239 | 4.0 | 9.0 | 0.00 | 0.13 | 0.10 | 72 | 1014.2 |
| 20260506033509 | 61 | 242 | 5.0 | 11.0 | 0.00 | 0.13 | 0.10 | 72 | 1014.1 |
| 20260506033009 | 61 | 274 | 6.0 | 12.0 | 0.00 | 0.13 | 0.10 | 72 | 1014.0 |
| 20260506032507 | 61 | 237 | 5.0 | 12.0 | 0.00 | 0.13 | 0.10 | 72 | 1013.9 |
| 20260506032010 | 61 | 274 | 6.0 | 10.0 | 0.00 | 0.13 | 0.10 | 72 | 1013.9 |
| 20260506031510 | 61 | 248 | 5.0 | 12.0 | 0.00 | 0.13 | 0.10 | 72 | 1013.8 |
| 20260506031009 | 61 | 251 | 5.0 | 9.0 | 0.00 | 0.13 | 0.10 | 72 | 1013.7 |
| 20260506030510 | 61 | 293 | 5.0 | 11.0 | 0.00 | 0.13 | 0.10 | 72 | 1013.8 |
| 20260506030024 | 61 | 263 | 5.0 | 11.0 | 0.00 | 0.13 | 0.10 | 72 | 1013.8 |
| 20260506025506 | 61 | 246 | 4.0 | 12.0 | 0.00 | 0.13 | 0.10 | 72 | 1013.8 |
| 20260506025011 | 62 | 285 | 4.0 | 12.0 | 0.00 | 0.13 | 0.10 | 72 | 1013.7 |
| 20260506024507 | 62 | 240 | 5.0 | 9.0 | 0.00 | 0.13 | 0.10 | 72 | 1013.6 |
| 20260506024009 | 62 | 254 | 5.0 | 10.0 | 0.00 | 0.13 | 0.10 | 72 | 1013.6 |
| 20260506023510 | 62 | 260 | 6.0 | 11.0 | 0.00 | 0.13 | 0.10 | 72 | 1013.6 |
| 20260506023010 | 62 | 259 | 6.0 | 11.0 | 0.00 | 0.13 | 0.10 | 72 | 1013.5 |
| 20260506022510 | 62 | 236 | 5.0 | 11.0 | 0.00 | 0.13 | 0.10 | 72 | 1013.5 |
| 20260506022012 | 62 | 271 | 5.0 | 11.0 | 0.00 | 0.13 | 0.10 | 72 | 1013.4 |
| 20260506021510 | 62 | 288 | 5.0 | 11.0 | 0.00 | 0.13 | 0.10 | 71 | 1013.3 |
| 20260506021010 | 63 | 210 | 4.0 | 11.0 | 0.00 | 0.13 | 0.10 | 71 | 1013.3 |
| 20260506020507 | 63 | 240 | 4.0 | 8.0 | 0.00 | 0.13 | 0.10 | 71 | 1013.3 |
| 20260506020023 | 63 | 236 | 4.0 | 9.0 | 0.00 | 0.13 | 0.10 | 71 | 1013.2 |
| 20260506015510 | 63 | 262 | 4.0 | 9.0 | 0.00 | 0.13 | 0.10 | 70 | 1013.2 |
| 20260506015008 | 63 | 297 | 3.0 | 8.0 | 0.00 | 0.13 | 0.10 | 70 | 1013.2 |
| 20260506014507 | 64 | 256 | 3.0 | 7.0 | 0.00 | 0.13 | 0.10 | 70 | 1013.1 |
| 20260506014012 | 64 | 247 | 3.0 | 7.0 | 0.00 | 0.13 | 0.10 | 70 | 1013.2 |
| 20260506013507 | 64 | 243 | 1.0 | 6.0 | 0.00 | 0.13 | 0.10 | 69 | 1013.2 |
| 20260506013011 | 64 | 212 | 1.0 | 3.0 | 0.00 | 0.13 | 0.10 | 69 | 1013.2 |
| 20260506012009 | 64 | 240 | 2.0 | 6.0 | 0.00 | 0.13 | 0.10 | 69 | 1013.1 |
| 20260506011506 | 64 | 121 | 3.0 | 7.0 | 0.00 | 0.13 | 0.10 | 69 | 1013.1 |
| 20260506011009 | 64 | 219 | 3.0 | 5.0 | 0.00 | 0.13 | 0.10 | 69 | 1013.0 |
| 20260506010507 | 64 | 153 | 2.0 | 5.0 | 0.00 | 0.13 | 0.10 | 69 | 1013.0 |
| 20260506010021 | 64 | 136 | 2.0 | 5.0 | 0.00 | 0.13 | 0.10 | 69 | 1013.1 |
| 20260506005509 | 64 | 218 | 3.0 | 6.0 | 0.00 | 0.13 | 0.10 | 69 | 1013.0 |
| 20260506005010 | 65 | 232 | 2.0 | 6.0 | 0.00 | 0.13 | 0.10 | 69 | 1013.0 |
| 20260506004510 | 65 | 153 | 3.0 | 6.0 | 0.00 | 0.13 | 0.10 | 69 | 1013.0 |
| 20260506004010 | 65 | 250 | 3.0 | 6.0 | 0.00 | 0.13 | 0.10 | 69 | 1013.0 |
| 20260506003505 | 65 | 229 | 2.0 | 6.0 | 0.00 | 0.13 | 0.10 | 70 | 1013.0 |
| 20260506003009 | 64 | 192 | 2.0 | 6.0 | 0.00 | 0.13 | 0.10 | 70 | 1013.0 |
| 20260506002512 | 64 | 144 | 3.0 | 6.0 | 0.00 | 0.13 | 0.10 | 70 | 1013.0 |
| 20260506002008 | 64 | 233 | 4.0 | 8.0 | 0.00 | 0.13 | 0.10 | 71 | 1012.9 |
| 20260506001507 | 64 | 228 | 3.0 | 8.0 | 0.00 | 0.13 | 0.10 | 71 | 1012.8 |
| 20260506001009 | 64 | 253 | 3.0 | 7.0 | 0.00 | 0.13 | 0.10 | 71 | 1012.9 |
| 20260506000510 | 64 | 248 | 4.0 | 7.0 | 0.00 | 0.13 | 0.10 | 71 | 1013.0 |
| 20260506000009 | 64 | 255 | 3.0 | 7.0 | 0.00 | 0.13 | 0.10 | 70 | 1013.0 |
| 20260505235506 | 64 | 249 | 1.0 | 6.0 | 0.00 | 0.13 | 0.10 | 69 | 1013.0 |
| 20260505235008 | 64 | 269 | 1.0 | 5.0 | 0.00 | 0.13 | 0.10 | 69 | 1012.9 |
| 20260505234510 | 64 | 220 | 2.0 | 5.0 | 0.00 | 0.13 | 0.10 | 70 | 1012.9 |
| 20260505234008 | 64 | 159 | 2.0 | 7.0 | 0.00 | 0.13 | 0.10 | 69 | 1012.9 |
| 20260505233511 | 65 | 304 | 1.0 | 7.0 | 0.00 | 0.13 | 0.10 | 69 | 1012.9 |
| 20260505233006 | 65 | 331 | 0.0 | 2.0 | 0.00 | 0.13 | 0.10 | 69 | 1012.9 |
| 20260505232011 | 65 | 288 | 1.0 | 4.0 | 0.00 | 0.13 | 0.10 | 69 | 1012.9 |
| 20260505231511 | 65 | 319 | 1.0 | 4.0 | 0.00 | 0.13 | 0.10 | 69 | 1012.9 |
| 20260505231007 | 64 | 345 | 1.0 | 3.0 | 0.00 | 0.13 | 0.10 | 69 | 1012.9 |
| 20260505230507 | 64 | 276 | 1.0 | 3.0 | 0.00 | 0.13 | 0.10 | 68 | 1013.0 |
| 20260505230006 | 64 | 243 | 1.0 | 3.0 | 0.00 | 0.13 | 0.10 | 69 | 1013.0 |
| 20260505225509 | 64 | 240 | 1.0 | 4.0 | 0.00 | 0.13 | 0.10 | 69 | 1013.1 |
| 20260505225010 | 64 | 286 | 2.0 | 5.0 | 0.00 | 0.13 | 0.10 | 69 | 1013.0 |
| 20260505224512 | 64 | 306 | 1.0 | 5.0 | 0.00 | 0.13 | 0.10 | 69 | 1013.1 |
| 20260505224011 | 64 | 265 | 1.0 | 5.0 | 0.00 | 0.13 | 0.10 | 69 | 1013.1 |
| 20260505223505 | 64 | 278 | 1.0 | 5.0 | 0.00 | 0.13 | 0.10 | 70 | 1013.1 |
| 20260505223012 | 64 | 260 | 1.0 | 2.0 | 0.00 | 0.13 | 0.10 | 70 | 1013.1 |
| 20260505222507 | 64 | 333 | 2.0 | 6.0 | 0.00 | 0.13 | 0.10 | 70 | 1013.2 |
| 20260505222006 | 63 | 287 | 2.0 | 6.0 | 0.00 | 0.13 | 0.10 | 70 | 1013.2 |
| 20260505221006 | 64 | 255 | 2.0 | 5.0 | 0.00 | 0.13 | 0.10 | 70 | 1013.3 |
| 20260505220511 | 64 | 323 | 1.0 | 5.0 | 0.00 | 0.13 | 0.10 | 70 | 1013.2 |
| 20260505220024 | 64 | 340 | 2.0 | 4.0 | 0.00 | 0.13 | 0.10 | 70 | 1013.2 |
| 20260505215508 | 64 | 349 | 2.0 | 6.0 | 0.00 | 0.13 | 0.10 | 69 | 1013.2 |
| 20260505215006 | 64 | 293 | 2.0 | 5.0 | 0.00 | 0.13 | 0.10 | 70 | 1013.3 |
| 20260505214509 | 64 | 224 | 2.0 | 5.0 | 0.00 | 0.13 | 0.10 | 70 | 1013.3 |
| 20260505214007 | 63 | 278 | 3.0 | 6.0 | 0.00 | 0.13 | 0.10 | 70 | 1013.3 |
| 20260505213506 | 63 | 296 | 2.0 | 6.0 | 0.00 | 0.13 | 0.10 | 71 | 1013.4 |
| 20260505213012 | 63 | 297 | 1.0 | 4.0 | 0.00 | 0.13 | 0.10 | 70 | 1013.4 |
| 20260505212518 | 63 | 290 | 2.0 | 6.0 | 0.00 | 0.13 | 0.10 | 71 | 1013.4 |
| 20260505212014 | 63 | 293 | 4.0 | 7.0 | 0.00 | 0.13 | 0.10 | 71 | 1013.5 |
| 20260505211507 | 63 | 268 | 4.0 | 7.0 | 0.00 | 0.13 | 0.10 | 72 | 1013.4 |
| 20260505211011 | 63 | 285 | 3.0 | 6.0 | 0.00 | 0.13 | 0.10 | 72 | 1013.5 |
| 20260505210506 | 63 | 259 | 3.0 | 7.0 | 0.00 | 0.13 | 0.10 | 71 | 1013.5 |
| 20260505210009 | 63 | 274 | 3.0 | 9.0 | 0.00 | 0.13 | 0.10 | 72 | 1013.5 |
| 20260505205505 | 63 | 281 | 3.0 | 9.0 | 0.00 | 0.13 | 0.10 | 72 | 1013.5 |
| 20260505205008 | 62 | 221 | 3.0 | 6.0 | 0.00 | 0.13 | 0.10 | 73 | 1013.5 |
| 20260505204511 | 62 | 297 | 4.0 | 8.0 | 0.00 | 0.13 | 0.10 | 73 | 1013.7 |
| 20260505203509 | 62 | 267 | 3.0 | 9.0 | 0.00 | 0.13 | 0.10 | 74 | 1013.7 |
| 20260505203010 | 62 | 297 | 4.0 | 9.0 | 0.00 | 0.13 | 0.10 | 74 | 1013.7 |
| 20260505202510 | 62 | 264 | 3.0 | 10.0 | 0.00 | 0.13 | 0.10 | 73 | 1013.8 |
| 20260505201507 | 62 | 293 | 4.0 | 11.0 | 0.00 | 0.13 | 0.10 | 73 | 1013.8 |
| 20260505200508 | 62 | 359 | 6.0 | 11.0 | 0.00 | 0.13 | 0.10 | 74 | 1013.8 |
| 20260505200024 | 62 | 257 | 5.0 | 10.0 | 0.00 | 0.13 | 0.10 | 73 | 1013.7 |
| 20260505195507 | 62 | 295 | 4.0 | 9.0 | 0.00 | 0.13 | 0.10 | 72 | 1013.7 |
| 20260505195011 | 62 | 278 | 4.0 | 9.0 | 0.00 | 0.13 | 0.10 | 72 | 1013.7 |
| 20260505194506 | 63 | 290 | 4.0 | 9.0 | 0.00 | 0.13 | 0.10 | 71 | 1013.8 |
| 20260505194008 | 62 | 286 | 4.0 | 10.0 | 0.00 | 0.13 | 0.10 | 73 | 1013.8 |
| 20260505193010 | 62 | 262 | 6.0 | 12.0 | 0.00 | 0.13 | 0.10 | 74 | 1013.8 |
| 20260505192505 | 61 | 245 | 7.0 | 12.0 | 0.00 | 0.13 | 0.10 | 75 | 1013.8 |
| 20260505192008 | 60 | 274 | 6.0 | 11.0 | 0.00 | 0.13 | 0.10 | 74 | 1013.8 |
| 20260505191006 | 60 | 245 | 5.0 | 11.0 | 0.00 | 0.13 | 0.10 | 76 | 1013.6 |
| 20260505190509 | 60 | 276 | 4.0 | 10.0 | 0.00 | 0.13 | 0.10 | 76 | 1013.7 |
| 20260505190020 | 59 | 248 | 5.0 | 10.0 | 0.00 | 0.13 | 0.10 | 77 | 1013.7 |
| 20260505185510 | 59 | 252 | 6.0 | 10.0 | 0.00 | 0.13 | 0.10 | 77 | 1013.8 |
| 20260505185011 | 59 | 324 | 6.0 | 12.0 | 0.00 | 0.13 | 0.10 | 77 | 1013.8 |
| 20260505184510 | 59 | 229 | 6.0 | 12.0 | 0.00 | 0.13 | 0.10 | 78 | 1013.8 |
| 20260505184011 | 59 | 268 | 7.0 | 13.0 | 0.00 | 0.13 | 0.10 | 78 | 1013.8 |
| 20260505183507 | 59 | 262 | 7.0 | 13.0 | 0.00 | 0.13 | 0.10 | 78 | 1013.7 |
| 20260505183010 | 59 | 277 | 6.0 | 12.0 | 0.00 | 0.13 | 0.10 | 78 | 1013.7 |
| 20260505182511 | 59 | 250 | 5.0 | 12.0 | 0.00 | 0.13 | 0.10 | 79 | 1013.7 |
| 20260505182011 | 59 | 269 | 6.0 | 12.0 | 0.00 | 0.13 | 0.10 | 80 | 1013.7 |
| 20260505181511 | 59 | 257 | 6.0 | 12.0 | 0.00 | 0.13 | 0.10 | 79 | 1013.6 |
| 20260505181006 | 58 | 263 | 5.0 | 12.0 | 0.00 | 0.13 | 0.10 | 79 | 1013.6 |
| 20260505180506 | 58 | 256 | 5.0 | 11.0 | 0.00 | 0.13 | 0.10 | 80 | 1013.6 |
| 20260505180009 | 58 | 293 | 6.0 | 11.0 | 0.00 | 0.13 | 0.10 | 80 | 1013.6 |